Location: NJAA Observatory
(40.6819°N, 74.8979°W)
Time: 08:58:09
(UTC-04:00)

Iridium 4 - Visible Passes

Search period start: 17 April 2014 00:00
Search period end: 27 April 2014 00:00
Orbit: 775 x 778 km, 86.4° (Epoch: 16 April)

Date Brightness Start Highest point End Pass type
(mag) Time Alt. Az. Time Alt. Az. Time Alt. Az.
17 Apr 8.2 03:05:55 10° NE 03:08:46 15° ENE 03:11:35 10° ESE visible
17 Apr 5.5 04:44:47 10° N 04:49:56 63° W 04:55:03 10° S visible
18 Apr 5.7 04:10:51 10° N 04:16:03 70° E 04:20:39 13° S visible
19 Apr 6.8 03:37:13 10° NNE 03:42:02 37° E 03:46:14 13° SE visible
19 Apr 6.6 05:18:22 10° NNW 05:22:29 24° W 05:26:35 10° SW visible
20 Apr 7.8 03:04:03 10° NNE 03:07:54 21° ENE 03:11:43 10° SE visible
20 Apr 5.9 04:43:52 10° NNW 04:48:48 44° W 04:52:17 18° SSW visible
21 Apr 8.3 02:32:18 10° ENE 02:33:36 11° ENE 02:34:53 10° E visible
21 Apr 5.4 04:09:45 10° N 04:14:59 84° W 04:18:00 26° S visible
22 Apr 6.2 03:35:57 10° N 03:41:03 52° E 03:43:46 26° SSE visible
22 Apr 7.0 05:17:55 10° NW 05:21:14 17° W 05:24:10 11° WSW visible
23 Apr 7.2 03:02:30 10° NNE 03:06:58 28° E 03:09:34 19° ESE visible
23 Apr 6.3 04:43:04 10° NNW 04:47:37 32° W 04:49:59 22° SW visible
24 Apr 8.0 02:29:40 10° NE 02:32:45 16° ENE 02:35:24 11° ESE visible
24 Apr 5.5 04:08:45 10° N 04:13:52 59° W 04:15:49 36° SSW visible
25 Apr 5.6 03:34:47 10° N 03:40:00 75° E 03:41:41 43° SSE visible
25 Apr 7.4 05:17:59 10° NW 05:19:57 12° WNW 05:21:55 10° W visible
26 Apr 6.6 03:01:07 10° NNE 03:06:00 40° E 03:07:35 32° ESE visible
26 Apr 6.8 04:42:24 10° NNW 04:46:24 23° W 04:48:00 20° WSW visible
